TimeAKDT,TemperatureF,Dew PointF,Humidity,Sea Level PressureIn,VisibilityMPH,Wind Direction,Wind SpeedMPH,Gust SpeedMPH,PrecipitationIn,Events,Conditions,WindDirDegrees,DateUTC
12:55 AM,45.0,44.4,98,29.80,10.0,Variable,4.6,-,N/A,,Overcast,0,2013-08-21 08:55:00
1:22 AM,44.6,44.6,100,29.80,10.0,Variable,3.5,-,N/A,,Mostly Cloudy,0,2013-08-21 09:22:00
1:50 AM,44.6,44.6,100,29.80,10.0,Variable,4.6,-,N/A,,Mostly Cloudy,0,2013-08-21 09:50:00
2:55 AM,43.9,43.2,97,29.81,10.0,Calm,Calm,-,N/A,,Mostly Cloudy,0,2013-08-21 10:55:00
3:09 AM,44.6,42.8,93,29.81,10.0,Calm,Calm,-,N/A,,Mostly Cloudy,0,2013-08-21 11:09:00
3:15 AM,44.6,42.8,93,29.81,10.0,Calm,Calm,-,N/A,,Mostly Cloudy,0,2013-08-21 11:15:00
3:45 AM,44.6,42.8,93,29.81,10.0,Calm,Calm,-,N/A,,Overcast,0,2013-08-21 11:45:00
3:55 AM,44.1,43.2,97,29.81,10.0,Calm,Calm,-,N/A,,Mostly Cloudy,0,2013-08-21 11:55:00
4:35 AM,42.8,42.8,100,29.81,10.0,Variable,4.6,-,N/A,,Overcast,0,2013-08-21 12:35:00
4:55 AM,43.2,42.4,97,29.81,10.0,Calm,Calm,-,N/A,,Mostly Cloudy,0,2013-08-21 12:55:00
5:00 AM,42.8,42.8,100,29.81,10.0,Calm,Calm,-,N/A,,Scattered Clouds,0,2013-08-21 13:00:00
5:22 AM,41.0,41.0,100,29.81,4.0,Variable,4.6,-,N/A,,Clear,0,2013-08-21 13:22:00
5:33 AM,41.0,41.0,100,29.81,3.0,Variable,4.6,-,N/A,,Mostly Cloudy,0,2013-08-21 13:33:00
5:41 AM,41.0,39.2,93,29.81,7.0,Calm,Calm,-,N/A,,Mostly Cloudy,0,2013-08-21 13:41:00
5:55 AM,42.1,41.5,98,29.81,10.0,Calm,Calm,-,N/A,,Overcast,0,2013-08-21 13:55:00
6:06 AM,41.0,39.2,93,29.82,9.0,Calm,Calm,-,N/A,,Overcast,0,2013-08-21 14:06:00
6:55 AM,42.4,41.5,97,29.82,10.0,Calm,Calm,-,N/A,,Mostly Cloudy,0,2013-08-21 14:55:00
7:20 AM,42.8,42.8,100,29.79,2.0,Calm,Calm,-,N/A,,Scattered Clouds,0,2013-08-21 15:20:00
7:33 AM,44.6,42.8,93,29.79,1.0,Calm,Calm,-,N/A,,Scattered Clouds,0,2013-08-21 15:33:00
7:49 AM,44.6,42.8,93,29.79,0.2,Calm,Calm,-,N/A,Fog,Fog,0,2013-08-21 15:49:00
7:55 AM,44.6,43.7,97,29.82,0.2,Calm,Calm,-,N/A,Fog,Fog,0,2013-08-21 15:55:00
8:05 AM,44.6,42.8,93,29.82,0.2,Calm,Calm,-,N/A,Fog,Fog,0,2013-08-21 16:05:00
8:08 AM,44.6,42.8,93,29.82,0.2,Calm,Calm,-,N/A,Fog,Fog,0,2013-08-21 16:08:00
8:12 AM,44.6,42.8,93,29.82,0.2,Calm,Calm,-,N/A,Fog,Fog,0,2013-08-21 16:12:00
8:25 AM,44.6,44.6,100,29.82,0.5,Calm,Calm,-,N/A,Fog,Fog,0,2013-08-21 16:25:00
8:35 AM,44.6,44.6,100,29.82,1.0,Calm,Calm,-,N/A,,Scattered Clouds,0,2013-08-21 16:35:00
8:36 AM,44.6,44.6,100,29.82,1.0,Calm,Calm,-,N/A,,Scattered Clouds,0,2013-08-21 16:36:00
8:55 AM,45.9,45.1,97,29.81,1.2,Calm,Calm,-,N/A,,Scattered Clouds,0,2013-08-21 16:55:00
9:08 AM,46.4,46.4,100,29.81,2.0,Calm,Calm,-,N/A,,Scattered Clouds,0,2013-08-21 17:08:00
9:30 AM,48.2,46.4,93,29.80,4.0,Calm,Calm,-,N/A,,Mostly Cloudy,0,2013-08-21 17:30:00
9:55 AM,48.2,46.8,95,29.81,10.0,Calm,Calm,-,N/A,,Scattered Clouds,0,2013-08-21 17:55:00
10:55 AM,52.0,46.8,82,29.81,10.0,WNW,4.6,-,N/A,,Scattered Clouds,290,2013-08-21 18:55:00
11:55 AM,54.7,48.6,80,29.80,10.0,NW,3.5,-,N/A,,Scattered Clouds,310,2013-08-21 19:55:00
12:55 PM,57.6,45.0,63,29.78,10.0,Calm,Calm,-,N/A,,Scattered Clouds,0,2013-08-21 20:55:00
1:55 PM,57.9,42.8,57,29.77,10.0,Calm,Calm,-,N/A,,Scattered Clouds,0,2013-08-21 21:55:00
2:55 PM,58.3,40.5,52,29.76,10.0,Calm,Calm,-,N/A,,Scattered Clouds,0,2013-08-21 22:55:00
3:21 PM,60.8,39.2,45,29.75,10.0,Variable,4.6,-,N/A,,Mostly Cloudy,0,2013-08-21 23:21:00
3:55 PM,59.0,40.3,50,29.75,10.0,WNW,3.5,-,N/A,,Mostly Cloudy,300,2013-08-21 23:55:00
4:13 PM,59.0,41.0,51,29.75,10.0,Variable,4.6,-,N/A,,Scattered Clouds,0,2013-08-22 00:13:00
4:55 PM,60.8,40.6,47,29.73,10.0,Calm,Calm,-,N/A,,Scattered Clouds,0,2013-08-22 00:55:00
5:55 PM,60.8,40.6,47,29.72,10.0,Calm,Calm,-,N/A,,Scattered Clouds,0,2013-08-22 01:55:00
6:55 PM,60.6,40.5,47,29.72,10.0,NNW,3.5,-,N/A,,Scattered Clouds,340,2013-08-22 02:55:00
7:42 PM,59.0,42.8,55,29.71,10.0,NW,3.5,-,N/A,,Mostly Cloudy,320,2013-08-22 03:42:00
7:55 PM,59.2,42.3,53,29.71,10.0,WNW,4.6,-,N/A,,Mostly Cloudy,290,2013-08-22 03:55:00
8:12 PM,59.0,42.8,55,29.71,10.0,Calm,Calm,-,N/A,,Scattered Clouds,0,2013-08-22 04:12:00
8:55 PM,57.6,43.2,59,29.71,10.0,Calm,Calm,-,N/A,,Partly Cloudy,0,2013-08-22 04:55:00
9:55 PM,50.9,44.8,80,29.71,10.0,Calm,Calm,-,N/A,,Clear,0,2013-08-22 05:55:00
10:16 PM,50.0,44.6,82,29.71,10.0,Calm,Calm,-,N/A,,Mostly Cloudy,0,2013-08-22 06:16:00
10:45 PM,50.0,44.6,82,29.71,10.0,Calm,Calm,-,N/A,,Scattered Clouds,0,2013-08-22 06:45:00
10:55 PM,49.1,43.7,82,29.71,10.0,Calm,Calm,-,N/A,,Mostly Cloudy,0,2013-08-22 06:55:00
11:19 PM,48.2,42.8,82,29.71,6.0,Calm,Calm,-,N/A,,Haze,0,2013-08-22 07:19:00
11:20 PM,48.2,42.8,82,29.71,6.0,Calm,Calm,-,N/A,,Haze,0,2013-08-22 07:20:00
11:55 PM,47.7,42.4,82,29.71,10.0,Calm,Calm,-,N/A,,Scattered Clouds,0,2013-08-22 07:55:00